Year,Month,Day,Hour,Minute,Value (Times are PST for temperature in C)
2014,07,22,00,00,14.80
2014,07,22,00,01,14.80
2014,07,22,00,02,14.80
2014,07,22,00,03,14.80
2014,07,22,00,04,14.70
2014,07,22,00,05,14.70
2014,07,22,00,06,14.70
2014,07,22,00,07,14.60
2014,07,22,00,08,14.60
2014,07,22,00,09,14.60
2014,07,22,00,10,14.60
2014,07,22,00,11,14.50
2014,07,22,00,12,14.50
2014,07,22,00,13,14.40
2014,07,22,00,14,14.40
2014,07,22,00,15,14.40
2014,07,22,00,16,14.40
2014,07,22,00,17,14.40
2014,07,22,00,18,14.40
2014,07,22,00,19,14.40
2014,07,22,00,20,14.40
2014,07,22,00,21,14.40
2014,07,22,00,22,14.30
2014,07,22,00,23,14.30
2014,07,22,00,24,14.30
2014,07,22,00,25,14.30
2014,07,22,00,26,14.30
2014,07,22,00,27,14.30
2014,07,22,00,28,14.30
2014,07,22,00,29,14.30
2014,07,22,00,30,14.30
2014,07,22,00,31,14.20
2014,07,22,00,32,14.20
2014,07,22,00,33,14.20
2014,07,22,00,34,14.20
2014,07,22,00,35,14.20
2014,07,22,00,36,14.20
2014,07,22,00,37,14.20
2014,07,22,00,38,14.20
2014,07,22,00,39,14.20
2014,07,22,00,40,14.20
2014,07,22,00,41,14.10
2014,07,22,00,42,14.10
2014,07,22,00,43,14.10
2014,07,22,00,44,14.10
2014,07,22,00,45,14.00
2014,07,22,00,46,14.00
2014,07,22,00,47,14.00
2014,07,22,00,48,13.90
2014,07,22,00,49,13.90
2014,07,22,00,50,13.90
2014,07,22,00,51,13.90
2014,07,22,00,52,13.80
2014,07,22,00,53,13.80
2014,07,22,00,54,13.80
2014,07,22,00,55,13.80
2014,07,22,00,56,13.80
2014,07,22,00,57,13.70
2014,07,22,00,58,13.70
2014,07,22,00,59,13.70
2014,07,22,01,00,13.70
2014,07,22,01,01,13.60
2014,07,22,01,02,13.60
2014,07,22,01,03,13.50
2014,07,22,01,04,13.50
2014,07,22,01,05,13.50
2014,07,22,01,06,13.40
2014,07,22,01,07,13.40
2014,07,22,01,08,13.40
2014,07,22,01,09,13.30
2014,07,22,01,10,13.30
2014,07,22,01,11,13.30
2014,07,22,01,12,13.30
2014,07,22,01,13,13.30
2014,07,22,01,14,13.40
2014,07,22,01,15,13.40
2014,07,22,01,16,13.40
2014,07,22,01,17,13.40
2014,07,22,01,18,13.40
2014,07,22,01,19,13.30
2014,07,22,01,20,13.30
2014,07,22,01,21,13.30
2014,07,22,01,22,13.30
2014,07,22,01,23,13.30
2014,07,22,01,24,13.30
2014,07,22,01,25,13.30
2014,07,22,01,26,13.20
2014,07,22,01,27,13.20
2014,07,22,01,28,13.20
2014,07,22,01,29,13.10
2014,07,22,01,30,13.10
2014,07,22,01,31,13.10
2014,07,22,01,32,13.00
2014,07,22,01,33,13.00
2014,07,22,01,34,13.00
2014,07,22,01,35,12.90
2014,07,22,01,36,12.90
2014,07,22,01,37,12.90
2014,07,22,01,38,12.90
2014,07,22,01,39,12.80
2014,07,22,01,40,12.80
2014,07,22,01,41,12.80
2014,07,22,01,42,12.80
2014,07,22,01,43,12.80
2014,07,22,01,44,12.80
2014,07,22,01,45,12.80
2014,07,22,01,46,12.80
2014,07,22,01,47,12.80
2014,07,22,01,48,12.70
2014,07,22,01,49,12.70
2014,07,22,01,50,12.70
2014,07,22,01,51,12.70
2014,07,22,01,52,12.70
2014,07,22,01,53,12.70
2014,07,22,01,54,12.60
2014,07,22,01,55,12.60
2014,07,22,01,56,12.60
2014,07,22,01,57,12.60
2014,07,22,01,58,12.50
2014,07,22,01,59,12.50
2014,07,22,02,00,12.50
2014,07,22,02,01,12.40
2014,07,22,02,02,12.40
2014,07,22,02,03,12.40
2014,07,22,02,04,12.40
2014,07,22,02,05,12.30
2014,07,22,02,06,12.30
2014,07,22,02,07,12.30
2014,07,22,02,08,12.30
2014,07,22,02,09,12.20
2014,07,22,02,10,12.20
2014,07,22,02,11,12.20
2014,07,22,02,12,12.10
2014,07,22,02,13,12.10
2014,07,22,02,14,12.10
2014,07,22,02,15,12.10
2014,07,22,02,16,12.00
2014,07,22,02,17,12.00
2014,07,22,02,18,12.00
2014,07,22,02,19,12.00
2014,07,22,02,20,11.90
2014,07,22,02,21,11.90
2014,07,22,02,22,11.90
2014,07,22,02,23,11.90
2014,07,22,02,24,11.90
2014,07,22,02,25,11.90
2014,07,22,02,26,11.90
2014,07,22,02,27,11.90
2014,07,22,02,28,11.90
2014,07,22,02,29,11.90
2014,07,22,02,30,11.90
2014,07,22,02,31,11.90
2014,07,22,02,32,11.90
2014,07,22,02,33,11.90
2014,07,22,02,34,11.90
2014,07,22,02,35,11.90
2014,07,22,02,36,11.90
2014,07,22,02,37,11.90
2014,07,22,02,38,11.90
2014,07,22,02,39,11.90
2014,07,22,02,40,12.00
2014,07,22,02,41,12.00
2014,07,22,02,42,12.00
2014,07,22,02,43,12.00
2014,07,22,02,44,12.00
2014,07,22,02,45,12.00
2014,07,22,02,46,12.00
2014,07,22,02,47,12.00
2014,07,22,02,48,12.00
2014,07,22,02,49,12.00
2014,07,22,02,50,12.00
2014,07,22,02,51,11.90
2014,07,22,02,52,11.90
2014,07,22,02,53,11.90
2014,07,22,02,54,11.90
2014,07,22,02,55,11.90
2014,07,22,02,56,11.80
2014,07,22,02,57,11.80
2014,07,22,02,58,11.80
2014,07,22,02,59,11.80
2014,07,22,03,00,11.80
2014,07,22,03,01,11.80
2014,07,22,03,02,11.70
2014,07,22,03,03,11.70
2014,07,22,03,04,11.70
2014,07,22,03,05,11.70
2014,07,22,03,06,11.70
2014,07,22,03,07,11.60
2014,07,22,03,08,11.60
2014,07,22,03,09,11.60
2014,07,22,03,10,11.60
2014,07,22,03,11,11.60
2014,07,22,03,12,11.50
2014,07,22,03,13,11.50
2014,07,22,03,14,11.50
2014,07,22,03,15,11.50
2014,07,22,03,16,11.50
2014,07,22,03,17,11.40
2014,07,22,03,18,11.40
2014,07,22,03,19,11.40
2014,07,22,03,20,11.40
2014,07,22,03,21,11.40
2014,07,22,03,22,11.40
2014,07,22,03,23,11.40
2014,07,22,03,24,11.40
2014,07,22,03,25,11.40
2014,07,22,03,26,11.40
2014,07,22,03,27,11.40
2014,07,22,03,28,11.40
2014,07,22,03,29,11.40
2014,07,22,03,30,11.40
2014,07,22,03,31,11.40
2014,07,22,03,32,11.40
2014,07,22,03,33,11.40
2014,07,22,03,34,11.40
2014,07,22,03,35,11.40
2014,07,22,03,36,11.40
2014,07,22,03,37,11.40
2014,07,22,03,38,11.40
2014,07,22,03,39,11.40
2014,07,22,03,40,11.40
2014,07,22,03,41,11.40
2014,07,22,03,42,11.40
2014,07,22,03,43,11.40
2014,07,22,03,44,11.40
2014,07,22,03,45,11.40
2014,07,22,03,46,11.40
2014,07,22,03,47,11.40
2014,07,22,03,48,11.50
2014,07,22,03,49,11.50
2014,07,22,03,50,11.50
2014,07,22,03,51,11.50
2014,07,22,03,52,11.50
2014,07,22,03,53,11.60
2014,07,22,03,54,11.60
2014,07,22,03,55,11.60
2014,07,22,03,56,11.60
2014,07,22,03,57,11.60
2014,07,22,03,58,11.60
2014,07,22,03,59,11.60
2014,07,22,04,00,11.60
2014,07,22,04,01,11.60
2014,07,22,04,02,11.60
2014,07,22,04,03,11.60
2014,07,22,04,04,11.60
2014,07,22,04,05,11.60
2014,07,22,04,06,11.60
2014,07,22,04,07,11.60
2014,07,22,04,08,11.60
2014,07,22,04,09,11.60
2014,07,22,04,10,11.60
2014,07,22,04,11,11.60
2014,07,22,04,12,11.60
2014,07,22,04,13,11.60
2014,07,22,04,14,11.60
2014,07,22,04,15,11.60
2014,07,22,04,16,11.60
2014,07,22,04,17,11.60
2014,07,22,04,18,11.60
2014,07,22,04,19,11.60
2014,07,22,04,20,11.60
2014,07,22,04,21,11.60
2014,07,22,04,22,11.70
2014,07,22,04,23,11.70
2014,07,22,04,24,11.70
2014,07,22,04,25,11.70
2014,07,22,04,26,11.70
2014,07,22,04,27,11.70
2014,07,22,04,28,11.70
2014,07,22,04,29,11.70
2014,07,22,04,30,11.70
2014,07,22,04,31,11.70
2014,07,22,04,32,11.70
2014,07,22,04,33,11.70
2014,07,22,04,34,11.70
2014,07,22,04,35,11.70
2014,07,22,04,36,11.70
2014,07,22,04,37,11.70
2014,07,22,04,38,11.80
2014,07,22,04,39,11.80
2014,07,22,04,40,11.80
2014,07,22,04,41,11.80
2014,07,22,04,42,11.70
2014,07,22,04,43,11.70
2014,07,22,04,44,11.70
2014,07,22,04,45,11.70
2014,07,22,04,46,11.70
2014,07,22,04,47,11.70
2014,07,22,04,48,11.70
2014,07,22,04,49,11.70
2014,07,22,04,50,11.70
2014,07,22,04,51,11.70
2014,07,22,04,52,11.60
2014,07,22,04,53,11.60
2014,07,22,04,54,11.60
2014,07,22,04,55,11.60
2014,07,22,04,56,11.60
2014,07,22,04,57,11.60
2014,07,22,04,58,11.60
2014,07,22,04,59,11.60
2014,07,22,05,00,11.60
2014,07,22,05,01,11.60
2014,07,22,05,02,11.60
2014,07,22,05,03,11.60
2014,07,22,05,04,11.60
2014,07,22,05,05,11.60
2014,07,22,05,06,11.60
2014,07,22,05,07,11.60
2014,07,22,05,08,11.70
2014,07,22,05,09,11.70
2014,07,22,05,10,11.70
2014,07,22,05,11,11.70
2014,07,22,05,12,11.70
2014,07,22,05,13,11.70
2014,07,22,05,14,11.80
2014,07,22,05,15,11.80
2014,07,22,05,16,11.80
2014,07,22,05,17,11.80
2014,07,22,05,18,11.80
2014,07,22,05,19,11.80
2014,07,22,05,20,11.80
2014,07,22,05,21,11.80
2014,07,22,05,22,11.80
2014,07,22,05,23,11.80
2014,07,22,05,24,11.80
2014,07,22,05,25,11.80
2014,07,22,05,26,11.80
2014,07,22,05,27,11.80
2014,07,22,05,28,11.80
2014,07,22,05,29,11.80
2014,07,22,05,30,11.90
2014,07,22,05,31,11.90
2014,07,22,05,32,11.90
2014,07,22,05,33,11.90
2014,07,22,05,34,11.90
2014,07,22,05,35,11.90
2014,07,22,05,36,11.90
2014,07,22,05,37,11.90
2014,07,22,05,38,11.90
2014,07,22,05,39,11.90
2014,07,22,05,40,11.90
2014,07,22,05,41,12.00
2014,07,22,05,42,12.00
2014,07,22,05,43,12.00
2014,07,22,05,44,12.00
2014,07,22,05,45,12.00
2014,07,22,05,46,12.10
2014,07,22,05,47,12.10
2014,07,22,05,48,12.10
2014,07,22,05,49,12.10
2014,07,22,05,50,12.10
2014,07,22,05,51,12.10
2014,07,22,05,52,12.20
2014,07,22,05,53,12.20
2014,07,22,05,54,12.20
2014,07,22,05,55,12.20
2014,07,22,05,56,12.20
2014,07,22,05,57,12.20
2014,07,22,05,58,12.20
2014,07,22,05,59,12.20
2014,07,22,06,00,12.20
2014,07,22,06,01,12.20
2014,07,22,06,02,12.20
2014,07,22,06,03,12.20
2014,07,22,06,04,12.20
2014,07,22,06,05,12.20
2014,07,22,06,06,12.20
2014,07,22,06,07,12.20
2014,07,22,06,08,12.20
2014,07,22,06,09,12.20
2014,07,22,06,10,12.20
2014,07,22,06,11,12.20
2014,07,22,06,12,12.20
2014,07,22,06,13,12.20
2014,07,22,06,14,12.20
2014,07,22,06,15,12.20
2014,07,22,06,16,12.30
2014,07,22,06,17,12.30
2014,07,22,06,18,12.30
2014,07,22,06,19,12.30
2014,07,22,06,20,12.30
2014,07,22,06,21,12.30
2014,07,22,06,22,12.30
2014,07,22,06,23,12.30
2014,07,22,06,24,12.30
2014,07,22,06,25,12.30
2014,07,22,06,26,12.30
2014,07,22,06,27,12.30
2014,07,22,06,28,12.30
2014,07,22,06,29,12.30
2014,07,22,06,30,12.30
2014,07,22,06,31,12.30
2014,07,22,06,32,12.30
2014,07,22,06,33,12.30
2014,07,22,06,34,12.30
2014,07,22,06,35,12.40
2014,07,22,06,36,12.40
2014,07,22,06,37,12.40
2014,07,22,06,38,12.40
2014,07,22,06,39,12.40
2014,07,22,06,40,12.50
2014,07,22,06,41,12.50
2014,07,22,06,42,12.50
2014,07,22,06,43,12.60
2014,07,22,06,44,12.60
2014,07,22,06,45,12.60
2014,07,22,06,46,12.60
2014,07,22,06,47,12.70
2014,07,22,06,48,12.70
2014,07,22,06,49,12.80
2014,07,22,06,50,12.80
2014,07,22,06,51,12.90
2014,07,22,06,52,12.90
2014,07,22,06,53,13.00
2014,07,22,06,54,13.00
2014,07,22,06,55,13.10
2014,07,22,06,56,13.10
2014,07,22,06,57,13.10
2014,07,22,06,58,13.20
2014,07,22,06,59,13.20
2014,07,22,07,00,13.20
2014,07,22,07,01,13.30
2014,07,22,07,02,13.30
2014,07,22,07,03,13.30
2014,07,22,07,04,13.30
2014,07,22,07,05,13.30
2014,07,22,07,06,13.30
2014,07,22,07,07,13.40
2014,07,22,07,08,13.40
2014,07,22,07,09,13.40
2014,07,22,07,10,13.40
2014,07,22,07,11,13.40
2014,07,22,07,12,13.40
2014,07,22,07,13,13.40
2014,07,22,07,14,13.50
2014,07,22,07,15,13.50
2014,07,22,07,16,13.50
2014,07,22,07,17,13.50
2014,07,22,07,18,13.60
2014,07,22,07,19,13.60
2014,07,22,07,20,13.60
2014,07,22,07,21,13.60
2014,07,22,07,22,13.60
2014,07,22,07,23,13.60
2014,07,22,07,24,13.60
2014,07,22,07,25,13.70
2014,07,22,07,26,13.70
2014,07,22,07,27,13.70
2014,07,22,07,28,13.70
2014,07,22,07,29,13.70
2014,07,22,07,30,13.80
2014,07,22,07,31,13.80
2014,07,22,07,32,13.80
2014,07,22,07,33,13.80
2014,07,22,07,34,13.80
2014,07,22,07,35,13.80
2014,07,22,07,36,13.90
2014,07,22,07,37,13.90
2014,07,22,07,38,13.90
2014,07,22,07,39,13.90
2014,07,22,07,40,13.90
2014,07,22,07,41,14.00
2014,07,22,07,42,14.00
2014,07,22,07,43,14.00
2014,07,22,07,44,14.00
2014,07,22,07,45,14.00
2014,07,22,07,46,14.00
2014,07,22,07,47,14.00
2014,07,22,07,48,14.10
2014,07,22,07,49,14.10
2014,07,22,07,50,14.10
2014,07,22,07,51,14.10
2014,07,22,07,52,14.10
2014,07,22,07,53,14.10
2014,07,22,07,54,14.20
2014,07,22,07,55,14.20
2014,07,22,07,56,14.20
2014,07,22,07,57,14.30
2014,07,22,07,58,14.30
2014,07,22,07,59,14.30
2014,07,22,08,00,14.30
2014,07,22,08,01,14.40
2014,07,22,08,02,14.40
2014,07,22,08,03,14.50
2014,07,22,08,04,14.60
2014,07,22,08,05,14.60
2014,07,22,08,06,14.70
2014,07,22,08,07,14.80
2014,07,22,08,08,15.00
2014,07,22,08,09,15.00
2014,07,22,08,10,15.00
2014,07,22,08,11,15.20
2014,07,22,08,12,15.30
2014,07,22,08,13,15.50
2014,07,22,08,14,15.60
2014,07,22,08,15,15.70
2014,07,22,08,16,15.80
2014,07,22,08,17,15.90
2014,07,22,08,18,16.00
2014,07,22,08,19,16.00
2014,07,22,08,20,16.10
2014,07,22,08,21,16.10
2014,07,22,08,22,16.10
2014,07,22,08,23,16.10
2014,07,22,08,24,16.10
2014,07,22,08,25,16.10
2014,07,22,08,26,16.10
2014,07,22,08,27,16.20
2014,07,22,08,28,16.20
2014,07,22,08,29,16.20
2014,07,22,08,30,16.20
2014,07,22,08,31,16.20
2014,07,22,08,32,16.20
2014,07,22,08,33,16.20
2014,07,22,08,34,16.20
2014,07,22,08,35,16.20
2014,07,22,08,36,16.20
2014,07,22,08,37,16.20
2014,07,22,08,38,16.20
2014,07,22,08,39,16.20
2014,07,22,08,40,16.30
2014,07,22,08,41,16.30
2014,07,22,08,42,16.30
2014,07,22,08,43,16.30
2014,07,22,08,44,16.30
2014,07,22,08,45,16.40
2014,07,22,08,46,16.40
2014,07,22,08,47,16.40
2014,07,22,08,48,16.40
2014,07,22,08,49,16.50
2014,07,22,08,50,16.50
2014,07,22,08,51,16.50
2014,07,22,08,52,16.60
2014,07,22,08,53,16.60
2014,07,22,08,54,16.60
2014,07,22,08,55,16.60
2014,07,22,08,56,16.70
2014,07,22,08,57,16.70
2014,07,22,08,58,16.70
2014,07,22,08,59,16.70
2014,07,22,09,00,16.80
2014,07,22,09,01,16.80
2014,07,22,09,02,16.90
2014,07,22,09,03,16.90
2014,07,22,09,04,17.00
2014,07,22,09,05,17.00
2014,07,22,09,06,17.10
2014,07,22,09,07,17.10
2014,07,22,09,08,17.20
2014,07,22,09,09,17.20
2014,07,22,09,10,17.20
2014,07,22,09,11,17.30
2014,07,22,09,12,17.30
2014,07,22,09,13,17.30
2014,07,22,09,14,17.30
2014,07,22,09,15,17.30
2014,07,22,09,16,17.30
2014,07,22,09,17,17.30
2014,07,22,09,18,17.30
2014,07,22,09,19,17.30
2014,07,22,09,20,17.30
2014,07,22,09,21,17.30
2014,07,22,09,22,17.40
2014,07,22,09,23,17.50
2014,07,22,09,24,17.50
2014,07,22,09,25,17.60
2014,07,22,09,26,17.70
2014,07,22,09,27,17.80
2014,07,22,09,28,17.80
2014,07,22,09,29,17.80
2014,07,22,09,30,17.80
2014,07,22,09,31,17.80
2014,07,22,09,32,17.90
2014,07,22,09,33,17.90
2014,07,22,09,34,17.90
2014,07,22,09,35,18.00
2014,07,22,09,36,18.00
2014,07,22,09,37,18.10
2014,07,22,09,38,18.10
2014,07,22,09,39,18.10
2014,07,22,09,40,18.10
2014,07,22,09,41,18.20
2014,07,22,09,42,18.20
2014,07,22,09,43,18.20
2014,07,22,09,44,18.20
2014,07,22,09,45,18.20
2014,07,22,09,46,18.20
2014,07,22,09,47,18.20
2014,07,22,09,48,18.20
2014,07,22,09,49,18.20
2014,07,22,09,50,18.30
2014,07,22,09,51,18.30
2014,07,22,09,52,18.40
2014,07,22,09,53,18.40
2014,07,22,09,54,18.40
2014,07,22,09,55,18.40
2014,07,22,09,56,18.50
2014,07,22,09,57,18.50
2014,07,22,09,58,18.60
2014,07,22,09,59,18.60
2014,07,22,10,00,18.70
2014,07,22,10,01,18.80
2014,07,22,10,02,18.80
2014,07,22,10,03,18.90
2014,07,22,10,04,19.00
2014,07,22,10,05,19.00
2014,07,22,10,06,19.00
2014,07,22,10,07,19.10
2014,07,22,10,08,19.10
2014,07,22,10,09,19.20
2014,07,22,10,10,19.20
2014,07,22,10,11,19.30
2014,07,22,10,12,19.30
2014,07,22,10,13,19.30
2014,07,22,10,14,19.20
2014,07,22,10,15,19.20
2014,07,22,10,16,19.10
2014,07,22,10,17,19.10
2014,07,22,10,18,19.00
2014,07,22,10,19,19.00
2014,07,22,10,20,18.90
2014,07,22,10,21,18.90
2014,07,22,10,22,18.80
2014,07,22,10,23,18.80
2014,07,22,10,24,18.80
2014,07,22,10,25,18.80
2014,07,22,10,26,18.80
2014,07,22,10,27,18.90
2014,07,22,10,28,18.90
2014,07,22,10,29,18.90
2014,07,22,10,30,19.00
2014,07,22,10,31,19.20
2014,07,22,10,32,19.20
2014,07,22,10,33,19.20
2014,07,22,10,34,19.30
2014,07,22,10,35,19.30
2014,07,22,10,36,19.30
2014,07,22,10,37,19.20
2014,07,22,10,38,19.00
2014,07,22,10,39,19.00
2014,07,22,10,40,18.90
2014,07,22,10,41,18.90
2014,07,22,10,42,18.90
2014,07,22,10,43,19.00
2014,07,22,10,44,19.00
2014,07,22,10,45,19.10
2014,07,22,10,46,19.10
2014,07,22,10,47,19.10
2014,07,22,10,48,19.20
2014,07,22,10,49,19.20
2014,07,22,10,50,19.20
2014,07,22,10,51,19.20
2014,07,22,10,52,19.20
2014,07,22,10,53,19.20
2014,07,22,10,54,19.20
2014,07,22,10,55,19.20
2014,07,22,10,56,19.10
2014,07,22,10,57,19.10
2014,07,22,10,58,19.20
2014,07,22,10,59,19.20
2014,07,22,11,00,19.10
2014,07,22,11,01,19.00
2014,07,22,11,02,19.10
2014,07,22,11,03,19.10
2014,07,22,11,04,19.10
2014,07,22,11,05,19.20
2014,07,22,11,06,19.30
2014,07,22,11,07,19.40
2014,07,22,11,08,19.50
2014,07,22,11,09,19.50
2014,07,22,11,10,19.60
2014,07,22,11,11,19.60
2014,07,22,11,12,19.50
2014,07,22,11,13,19.40
2014,07,22,11,14,19.30
2014,07,22,11,15,19.30
2014,07,22,11,16,19.20
2014,07,22,11,17,19.20
2014,07,22,11,18,19.30
2014,07,22,11,19,19.30
2014,07,22,11,20,19.20
2014,07,22,11,21,19.20
2014,07,22,11,22,19.30
2014,07,22,11,23,19.30
2014,07,22,11,24,19.30
2014,07,22,11,25,19.30
2014,07,22,11,26,19.40
2014,07,22,11,27,19.30
2014,07,22,11,28,19.40
2014,07,22,11,29,19.40
2014,07,22,11,30,19.40
2014,07,22,11,31,19.40
2014,07,22,11,32,19.40
2014,07,22,11,33,19.40
2014,07,22,11,34,19.30
2014,07,22,11,35,19.30
2014,07,22,11,36,19.20
2014,07,22,11,37,19.10
2014,07,22,11,38,19.10
2014,07,22,11,39,19.10
2014,07,22,11,40,19.10
2014,07,22,11,41,19.10
2014,07,22,11,42,19.20
2014,07,22,11,43,19.20
2014,07,22,11,44,19.20
2014,07,22,11,45,19.20
2014,07,22,11,46,19.20
2014,07,22,11,47,19.20
2014,07,22,11,48,19.10
2014,07,22,11,49,19.10
2014,07,22,11,50,19.10
2014,07,22,11,51,19.00
2014,07,22,11,52,19.10
2014,07,22,11,53,19.10
2014,07,22,11,54,19.10
2014,07,22,11,55,19.10
2014,07,22,11,56,19.10
2014,07,22,11,57,19.10
2014,07,22,11,58,19.10
2014,07,22,11,59,19.00
2014,07,22,12,00,19.00
2014,07,22,12,01,19.00
2014,07,22,12,02,19.10
2014,07,22,12,03,19.10
2014,07,22,12,04,19.10
2014,07,22,12,05,19.10
2014,07,22,12,06,19.20
2014,07,22,12,07,19.20
2014,07,22,12,08,19.20
2014,07,22,12,09,19.30
2014,07,22,12,10,19.30
2014,07,22,12,11,19.20
2014,07,22,12,12,19.20
2014,07,22,12,13,19.10
2014,07,22,12,14,19.20
2014,07,22,12,15,19.20
2014,07,22,12,16,19.20
2014,07,22,12,17,19.30
2014,07,22,12,18,19.40
2014,07,22,12,19,19.50
2014,07,22,12,20,19.50
2014,07,22,12,21,19.50
2014,07,22,12,22,19.40
2014,07,22,12,23,19.40
2014,07,22,12,24,19.40
2014,07,22,12,25,19.40
2014,07,22,12,26,19.40
2014,07,22,12,27,19.40
2014,07,22,12,28,19.40
2014,07,22,12,29,19.50
2014,07,22,12,30,19.50
2014,07,22,12,31,19.50
2014,07,22,12,32,19.50
2014,07,22,12,33,19.60
2014,07,22,12,34,19.70
2014,07,22,12,35,19.70
2014,07,22,12,36,19.80
2014,07,22,12,37,19.80
2014,07,22,12,38,19.90
2014,07,22,12,39,19.80
2014,07,22,12,40,19.80
2014,07,22,12,41,19.80
2014,07,22,12,42,19.80
2014,07,22,12,43,19.80
2014,07,22,12,44,19.70
2014,07,22,12,45,19.70
2014,07,22,12,46,19.70
2014,07,22,12,47,19.70
2014,07,22,12,48,19.60
2014,07,22,12,49,19.60
2014,07,22,12,50,19.60
2014,07,22,12,51,19.50
2014,07,22,12,52,19.50
2014,07,22,12,53,19.40
2014,07,22,12,54,19.30
2014,07,22,12,55,19.30
2014,07,22,12,56,19.40
2014,07,22,12,57,19.40
2014,07,22,12,58,19.60
2014,07,22,12,59,19.70
2014,07,22,13,00,19.80
2014,07,22,13,01,19.80
2014,07,22,13,02,19.70
2014,07,22,13,03,19.60
2014,07,22,13,04,19.60
2014,07,22,13,05,19.50
2014,07,22,13,06,19.50
2014,07,22,13,07,19.40
2014,07,22,13,08,19.40
2014,07,22,13,09,19.30
2014,07,22,13,10,19.30
2014,07,22,13,11,19.30
2014,07,22,13,12,19.30
2014,07,22,13,13,19.30
2014,07,22,13,14,19.40
2014,07,22,13,15,19.30
2014,07,22,13,16,19.30
2014,07,22,13,17,19.30
2014,07,22,13,18,19.20
2014,07,22,13,19,19.10
2014,07,22,13,20,19.20
2014,07,22,13,21,19.20
2014,07,22,13,22,19.30
2014,07,22,13,23,19.30
2014,07,22,13,24,19.30
2014,07,22,13,25,19.30
2014,07,22,13,26,19.30
2014,07,22,13,27,19.30
2014,07,22,13,28,19.30
2014,07,22,13,29,19.30
2014,07,22,13,30,19.20
2014,07,22,13,31,19.20
2014,07,22,13,32,19.20
2014,07,22,13,33,19.20
2014,07,22,13,34,19.20
2014,07,22,13,35,19.30
2014,07,22,13,36,19.40
2014,07,22,13,37,19.40
2014,07,22,13,38,19.40
2014,07,22,13,39,19.30
2014,07,22,13,40,19.30
2014,07,22,13,41,19.20
2014,07,22,13,42,19.20
2014,07,22,13,43,19.10
2014,07,22,13,44,19.10
2014,07,22,13,45,19.10
2014,07,22,13,46,19.10
2014,07,22,13,47,19.10
2014,07,22,13,48,19.10
2014,07,22,13,49,19.20
2014,07,22,13,50,19.20
2014,07,22,13,51,19.30
2014,07,22,13,52,19.30
2014,07,22,13,53,19.40
2014,07,22,13,54,19.40
2014,07,22,13,55,19.40
2014,07,22,13,56,19.40
2014,07,22,13,57,19.30
2014,07,22,13,58,19.30
2014,07,22,13,59,19.30
2014,07,22,14,00,19.30
2014,07,22,14,01,19.20
2014,07,22,14,02,19.10
2014,07,22,14,03,19.10
2014,07,22,14,04,19.00
2014,07,22,14,05,19.00
2014,07,22,14,06,18.90
2014,07,22,14,07,18.90
2014,07,22,14,08,18.90
2014,07,22,14,09,18.90
2014,07,22,14,10,18.90
2014,07,22,14,11,18.90
2014,07,22,14,12,19.00
2014,07,22,14,13,19.10
2014,07,22,14,14,19.10
2014,07,22,14,15,19.10
2014,07,22,14,16,19.10
2014,07,22,14,17,19.10
2014,07,22,14,18,19.10
2014,07,22,14,19,19.00
2014,07,22,14,20,18.90
2014,07,22,14,21,18.90
2014,07,22,14,22,18.80
2014,07,22,14,23,18.90
2014,07,22,14,24,18.90
2014,07,22,14,25,18.90
2014,07,22,14,26,18.90
2014,07,22,14,27,18.90
2014,07,22,14,28,19.00
2014,07,22,14,29,19.00
2014,07,22,14,30,19.00
2014,07,22,14,31,19.00
2014,07,22,14,32,19.00
2014,07,22,14,33,18.90
2014,07,22,14,34,18.90
2014,07,22,14,35,18.90
2014,07,22,14,36,18.90
2014,07,22,14,37,18.90
2014,07,22,14,38,19.00
2014,07,22,14,39,19.10
2014,07,22,14,40,19.20
2014,07,22,14,41,19.20
2014,07,22,14,42,19.20
2014,07,22,14,43,19.20
2014,07,22,14,44,19.20
2014,07,22,14,45,19.20
2014,07,22,14,46,19.30
2014,07,22,14,47,19.30
2014,07,22,14,48,19.40
2014,07,22,14,49,19.40
2014,07,22,14,50,19.40
2014,07,22,14,51,19.30
2014,07,22,14,52,19.20
2014,07,22,14,53,19.10
2014,07,22,14,54,19.00
2014,07,22,14,55,18.90
2014,07,22,14,56,18.90
2014,07,22,14,57,18.80
2014,07,22,14,58,18.90
2014,07,22,14,59,18.90
2014,07,22,15,00,19.00
2014,07,22,15,01,19.10
2014,07,22,15,02,19.20
2014,07,22,15,03,19.20
2014,07,22,15,04,19.20
2014,07,22,15,05,19.30
2014,07,22,15,06,19.30
2014,07,22,15,07,19.30
2014,07,22,15,08,19.20
2014,07,22,15,09,19.30
2014,07,22,15,10,19.30
2014,07,22,15,11,19.40
2014,07,22,15,12,19.50
2014,07,22,15,13,19.50
2014,07,22,15,14,19.40
2014,07,22,15,15,19.30
2014,07,22,15,16,19.20
2014,07,22,15,17,19.10
2014,07,22,15,18,19.10
2014,07,22,15,19,19.10
2014,07,22,15,20,19.20
2014,07,22,15,21,19.30
2014,07,22,15,22,19.40
2014,07,22,15,23,19.40
2014,07,22,15,24,19.40
2014,07,22,15,25,19.30
2014,07,22,15,26,19.20
2014,07,22,15,27,19.10
2014,07,22,15,28,19.10
2014,07,22,15,29,19.10
2014,07,22,15,30,19.20
2014,07,22,15,31,19.30
2014,07,22,15,32,19.30
2014,07,22,15,33,19.40
2014,07,22,15,34,19.40
2014,07,22,15,35,19.40
2014,07,22,15,36,19.40
2014,07,22,15,37,19.30
2014,07,22,15,38,19.30
2014,07,22,15,39,19.20
2014,07,22,15,40,19.10
2014,07,22,15,41,19.10
2014,07,22,15,42,19.10
2014,07,22,15,43,19.10
2014,07,22,15,44,19.10
2014,07,22,15,45,19.10
2014,07,22,15,46,19.10
2014,07,22,15,47,19.10
2014,07,22,15,48,19.20
2014,07,22,15,49,19.20
2014,07,22,15,50,19.30
2014,07,22,15,51,19.20
2014,07,22,15,52,19.10
2014,07,22,15,53,19.00
2014,07,22,15,54,19.00
2014,07,22,15,55,18.90
2014,07,22,15,56,18.90
2014,07,22,15,57,18.90
2014,07,22,15,58,18.90
2014,07,22,15,59,18.80
2014,07,22,16,00,18.90
2014,07,22,16,01,18.80
2014,07,22,16,02,18.90
2014,07,22,16,03,18.90
2014,07,22,16,04,19.00
2014,07,22,16,05,19.00
2014,07,22,16,06,19.20
2014,07,22,16,07,19.20
2014,07,22,16,08,19.30
2014,07,22,16,09,19.30
2014,07,22,16,10,19.20
2014,07,22,16,11,19.20
2014,07,22,16,12,19.20
2014,07,22,16,13,19.20
2014,07,22,16,14,19.20
2014,07,22,16,15,19.20
2014,07,22,16,16,19.10
2014,07,22,16,17,19.00
2014,07,22,16,18,19.00
2014,07,22,16,19,18.90
2014,07,22,16,20,18.90
2014,07,22,16,21,18.90
2014,07,22,16,22,18.80
2014,07,22,16,23,18.90
2014,07,22,16,24,18.90
2014,07,22,16,25,18.90
2014,07,22,16,26,19.00
2014,07,22,16,27,19.10
2014,07,22,16,28,19.30
2014,07,22,16,29,19.20
2014,07,22,16,30,19.10
2014,07,22,16,31,19.10
2014,07,22,16,32,19.10
2014,07,22,16,33,19.20
2014,07,22,16,34,19.30
2014,07,22,16,35,19.40
2014,07,22,16,36,19.50
2014,07,22,16,37,19.60
2014,07,22,16,38,19.60
2014,07,22,16,39,19.70
2014,07,22,16,40,19.60
2014,07,22,16,41,19.60
2014,07,22,16,42,19.40
2014,07,22,16,43,19.30
2014,07,22,16,44,19.20
2014,07,22,16,45,19.20
2014,07,22,16,46,19.20
2014,07,22,16,47,19.20
2014,07,22,16,48,19.30
2014,07,22,16,49,19.40
2014,07,22,16,50,19.40
2014,07,22,16,51,19.50
2014,07,22,16,52,19.50
2014,07,22,16,53,19.40
2014,07,22,16,54,19.30
2014,07,22,16,55,19.30
2014,07,22,16,56,19.10
2014,07,22,16,57,19.00
2014,07,22,16,58,19.00
2014,07,22,16,59,19.00
2014,07,22,17,00,19.10
2014,07,22,17,01,19.10
2014,07,22,17,02,19.20
2014,07,22,17,03,19.30
2014,07,22,17,04,19.30
2014,07,22,17,05,19.30
2014,07,22,17,06,19.30
2014,07,22,17,07,19.30
2014,07,22,17,08,19.30
2014,07,22,17,09,19.30
2014,07,22,17,10,19.20
2014,07,22,17,11,19.10
2014,07,22,17,12,19.00
2014,07,22,17,13,19.00
2014,07,22,17,14,18.90
2014,07,22,17,15,18.90
2014,07,22,17,16,18.90
2014,07,22,17,17,19.00
2014,07,22,17,18,19.00
2014,07,22,17,19,19.00